LIVE Streaming HD
Get Adobe Flash player
Annunci di Google
Satellite
Annunci di Google
Fasi Lunari
Satellite 2
satellite e T nubi
Previsione
Dati meteo stazione (refresh automatico ogni minuto)
Ostia(RM) VENTO: VELOCITÀ   PIOGGIA: QTA GIORNO TEMPERATURA: ATTUALE
SPOT: Kursaal Lido Ostia ---- Posizione su Googlemap:Latitudine: 41.71N Longitudine: 12.31E RAFFICA MASSIMA: QTA MENSILE: MASSIMA:
VELOCITÀ MEDIA: QTA ANNUALE: MINIMA:
DIREZIONE: UMIDITÀ: WIND CHILL:
TIPO: DEW POINT:
BEAUFORT: PRESSIONE:
I nostri partner
Ostia(RM) nelle ultime ore
Applica filtri in visualizzazione Intervallo delle letture nelle ultime

Ora Direzione Vento Velocita' Vento Media Vento Raffica Max. Temperatura Wind Chill Pioggia Pressione
18:13:50259 °(W)6 Kts7 Kts12.2 Kts21.5 °C21.5 °C0 mm1016.3 Hpa
18:08:52256 °(WSW)7.8 Kts7 Kts12.2 Kts21.5 °C21.5 °C0 mm1016.2 Hpa
18:03:57242 °(WSW)7 Kts7 Kts12.2 Kts21.5 °C21.5 °C0 mm1016.2 Hpa
17:59:12248 °(WSW)6 Kts7 Kts12.2 Kts21.6 °C21.6 °C0 mm1016.2 Hpa
17:54:18220 °(SW)7.8 Kts7 Kts12.2 Kts21.6 °C21.6 °C0 mm1016.3 Hpa
17:48:41265 °(W)5.2 Kts7 Kts12.2 Kts21.7 °C21.7 °C0 mm1016.3 Hpa
17:43:47254 °(WSW)7.8 Kts7.8 Kts12.2 Kts21.7 °C21.7 °C0 mm1016.2 Hpa
17:39:19248 °(WSW)7.8 Kts7.8 Kts12.2 Kts21.7 °C21.7 °C0 mm1016.4 Hpa
17:33:15254 °(WSW)7.8 Kts7 Kts12.2 Kts21.7 °C21.7 °C0 mm1016.4 Hpa
17:28:58248 °(WSW)7 Kts6 Kts12.2 Kts21.8 °C21.8 °C0 mm1016.4 Hpa
17:24:04249 °(WSW)7 Kts6 Kts12.2 Kts21.8 °C21.8 °C0 mm1016.3 Hpa
17:19:08252 °(WSW)4.3 Kts6 Kts12.2 Kts21.8 °C21.8 °C0 mm1016.3 Hpa
17:14:15244 °(WSW)6 Kts6 Kts12.2 Kts21.8 °C21.8 °C0 mm1016.3 Hpa
17:09:20250 °(WSW)7 Kts6 Kts12.2 Kts21.8 °C21.8 °C0 mm1016.4 Hpa
17:03:02247 °(WSW)6 Kts6 Kts12.2 Kts21.8 °C21.8 °C0 mm1016.5 Hpa
16:58:49256 °(WSW)5.2 Kts6 Kts12.2 Kts21.8 °C21.8 °C0 mm1016.5 Hpa
16:53:54245 °(WSW)7 Kts6 Kts12.2 Kts21.7 °C21.7 °C0 mm1016.5 Hpa
16:48:57245 °(WSW)4.3 Kts6 Kts12.2 Kts21.8 °C21.8 °C0 mm1016.5 Hpa
16:44:08248 °(WSW)6 Kts6 Kts12.2 Kts21.7 °C21.7 °C0 mm1016.5 Hpa
16:38:35259 °(W)7.8 Kts7 Kts12.2 Kts21.7 °C21.7 °C0 mm1016.5 Hpa
16:34:11242 °(WSW)5.2 Kts7 Kts12.2 Kts21.8 °C21.8 °C0 mm1016.5 Hpa
16:29:16257 °(WSW)7.8 Kts7 Kts12.2 Kts21.8 °C21.8 °C0 mm1016.5 Hpa
16:24:21258 °(WSW)7.8 Kts6 Kts12.2 Kts21.9 °C21.9 °C0 mm1016.6 Hpa
16:18:43255 °(WSW)6 Kts7 Kts12.2 Kts21.9 °C21.9 °C0 mm1016.5 Hpa